Regional Weather Roundup
Issued by NWS Lake Charles, LA

Home | Current Version | Previous Version | Text Only | Print | Product List | Glossary On
Versions: 1 2 3 4 5 6 7 8 9 10 11 12 13 14 15 16 17 18 19 20 21 22 23 24 25 26 27 28 29 30 31 32 33 34 35 36 37 38 39 40 41 42 43 44 45 46
000
ASUS44 KLCH 200510
RWRLCH
RWRLCH
REGIONAL WEATHER ROUNDUP
NATIONAL WEATHER SERVICE LAKE CHARLES LA
1100 PM CST FRI DEC 19 2014

Note: "fair" indicates few or no clouds below 12,000 feet with no
significant weather and/or obstructions to visibility.


ACROSS SOUTHEAST TEXAS

CITY           SKY/WX    TMP DP  RH WIND       PRES   REMARKS
BEAUMONT       CLOUDY    51  49  92 N14       30.10R
BEAUMONT CITY  CLOUDY    49  48  99 N14       30.12S
ORANGE         CLOUDY    50  50  99 N10G16    30.13R FOG
JASPER         CLOUDY    48  47  95 NE7       30.16S
$$

ACROSS CENTRAL LOUISIANA

CITY           SKY/WX    TMP DP  RH WIND       PRES   REMARKS
LEESVILLE      CLOUDY    47  46  97 NE7       30.13S
FULLERTON      CLOUDY    49  46  90 VRB6      30.12S FOG
ALEXANDRIA INT LGT RAIN  47  46  97 NE7       30.15S FOG
ESLER FIELD    CLOUDY    48  45  89 VRB5      30.16S
DERIDDER       CLOUDY    48  46  95 N9        30.15S FOG
OAKDALE        CLOUDY    49  47  91 N8        30.13S
OPELOUSAS      CLOUDY    47  47  97 N14       30.11S
$$

ACROSS SOUTHWEST AND SOUTH CENTRAL LOUISIANA

CITY           SKY/WX    TMP DP  RH WIND       PRES   REMARKS
SULPHUR        CLOUDY    52  51  98 N13G18    30.11S
LAKE CHARLES   CLOUDY    51  50  96 MISG      30.10R
CHENNAULT INT  CLOUDY    50  49  98 N10       30.11R
CAMERON PHI    CLOUDY    52  50  93 N14G22    30.11S
DEQUINCY       CLOUDY    49  49 100 N8        30.12S FOG
JENNINGS       CLOUDY    49  49  97 NE12      30.11R
LAFAYETTE      LGT RAIN  50  50 100 N10       30.09R
NEW IBERIA     RAIN      52  50  93 NE9       30.08R FOG
ABBEVILLE      DRIZZLE   50  49  97 N8        30.08R
PATTERSON      CLOUDY    52  48  87 E13       30.06F
SALT POINT       N/A     54  50  86 VRB5      30.03F
$$

SELECTED SITES ACROSS THE REGION

CITY           SKY/WX    TMP DP  RH WIND       PRES   REMARKS
HOUSTON BUSH   CLOUDY    53  51  93 N13       30.14R
HOUSTON HOBBY  CLOUDY    54  51  90 N15       30.12R
GALVESTON      LGT RAIN  53  53 100 N21       30.11R
COLLEGE STAT   CLOUDY    49  47  93 N12       30.18R FOG
CONROE         CLOUDY    51  48  89 N7        30.15R
HUNTSVILLE     CLOUDY    50  48  93 VRB3      30.16R FOG
LUFKIN         CLOUDY    51  46  83 N6        30.17R
SHREVEPORT     CLOUDY    47  45  93 NE9       30.20R
MONROE         CLOUDY    46  45  96 NE8       30.21S
NATCHEZ MS     CLOUDY    46  43  87 N8G16     30.16F
BATON ROUGE    CLOUDY    49  47  93 NE9       30.09F
N.O. INTL ARPT RAIN      50  48  93 NE16      30.07F FOG
SLIDELL        LGT RAIN  49  46  90 NE5       30.09S
$$

MARINE REPORTS

STATION/POSITION TIME  TEMP    WIND        PRES    VSBY  WAVE
                       AIR SEA DIR/SP/G                  HT/PER
                 (UTC) (F)     (DEG/KT/KT) (MB)    (MI)  (FT/S)
BUOY 30 S HIGH I 0500   54 64   20/ 17/ 21 1018.2R         5/ 6
SEA RIM ST PARK  0500   51     360/ 13/ 15 1019.7R
PORT ARTHUR      0500      61  360/ 11/ 15 1019.3S
SABINE PASS N    0500   53 61   10/ 15/ 18 1019.0S
TEXAS POINT      NOT AVBL
CALCASIEU PASS   0500   52 60   40/ 14/ 19   N/A
LK CHARLES BEACH 0500   50 60              1019.7R
MARSH ISLAND     NOT AVBL
FRESH WATER LOCK 0500   51 60   40/  9/ 14 1017.4R
AMERADA PASS     0500   50 51   50/  7/ 14 1017.2S
$$



USA.gov is the U.S. government's official web portal to all federal, state and local government web resources and services.